Bloomington, IN

6:55 AM EST on February 13, 2016 (GMT -0500)
Monroe County

Weather History for KBMG - February, 1999

Change the Weather History Date:

Friday, February 19, 1999

  Actual Average Record
Temperature  
Mean Temperature 34 °F 34 °F  
Max Temperature 41 °F 44 °F 57 °F (2011)
Min Temperature 27 °F 24 °F -9 °F (2015)
Degree Days  
Heating Degree Days 31 31  
Month to date heating degree days 629  
Since 1 July heating degree days 3804  
Cooling Degree Days 0 0  
Month to date cooling degree days 0  
Year to date cooling degree days 0  
Moisture  
Dew Point 23 °F    
Average Humidity 71    
Maximum Humidity 89    
Minimum Humidity 51    
Precipitation  
Precipitation 0.00 in 0.11 in 0.41 in (2002)
Month to date precipitation 2.01  
Year to date precipitation 5.32  
Sea Level Pressure  
Sea Level Pressure 30.02 in    
Wind  
Wind Speed 9 mph (NNE)    
Max Wind Speed 14 mph    
Max Gust Speed 17 mph    
Visibility 9 miles    
Events      
T = Trace of Precipitation, MM = Missing Value Source: NWS Daily Summary

Daily Weather History Graph

Daily Weather History Graph

Search for Another Location

Airport or City:

Trip Planner

Search our weather history database for the weather conditions in past years. The results will help you decide how hot, cold, wet, or windy it might be!

Date:

Astronomy

Feb. 19, 1999 Rise Set
Actual Time 7:33 AM EST 6:27 PM EST
Civil Twilight 7:06 AM EST 6:55 PM EST
Nautical Twilight 6:35 AM EST 7:26 PM EST
Astronomical Twilight 6:04 AM EST 7:57 PM EST
Moon 9:43 AM EST (2/19) 10:27 PM EST (2/19)
Length of Visible Light 11h 48m
Length of Day
10h 54m
Waxing Crescent, 15% of the Moon is Illuminated
Feb 19
Waxing Crescent
Feb 22
First Quarter
Mar 2
Full
Mar 10
Last Quarter
Mar 17
New

Hourly Weather History & Observations

Time (EST) Temp. Windchill Dew Point Humidity Pressure Visibility Wind Dir Wind Speed Gust Speed Precip Events Conditions
12:53 AM 30.0 °F 22.4 °F 24.1 °F 79% 29.97 in 9.0 mi ENE 8.1 mph - N/A   Clear
1:53 AM 30.0 °F 23.2 °F 24.1 °F 79% 29.96 in 9.0 mi ENE 6.9 mph - N/A   Clear
2:53 AM 28.0 °F 20.0 °F 24.1 °F 85% 29.96 in 8.0 mi NE 8.1 mph - N/A   Clear
3:53 AM 28.0 °F 20.8 °F 25.0 °F 88% 29.96 in 6.0 mi NE 6.9 mph - N/A   Scattered Clouds
4:53 AM 27.0 °F 18.7 °F 24.1 °F 89% 29.96 in 5.0 mi NNE 8.1 mph - N/A   Clear
5:53 AM 27.0 °F 18.7 °F 24.1 °F 89% 29.98 in 7.0 mi NNE 8.1 mph - N/A   Mostly Cloudy
6:53 AM 27.0 °F 18.7 °F 23.0 °F 85% 29.99 in 7.0 mi NNE 8.1 mph - N/A   Partly Cloudy
7:53 AM 27.0 °F 18.0 °F 21.9 °F 81% 30.00 in 6.0 mi NE 9.2 mph - N/A   Haze
8:53 AM 28.9 °F 19.2 °F 23.0 °F 78% 30.02 in 7.0 mi NNE 11.5 mph - N/A   Clear
9:53 AM 32.0 °F 22.1 °F 23.0 °F 69% 30.02 in 10.0 mi NNE 13.8 mph - N/A   Clear
10:53 AM 35.1 °F 26.9 °F 23.0 °F 61% 30.02 in 10.0 mi NNE 11.5 mph - N/A   Clear
11:53 AM 37.0 °F 28.5 °F 21.9 °F 54% 30.01 in 10.0 mi NNE 13.8 mph - N/A   Clear
12:53 PM 37.9 °F 34.4 °F 21.9 °F 53% 30.01 in 10.0 mi Variable 4.6 mph 17.3 mph N/A   Clear
1:53 PM 39.0 °F 34.0 °F 23.0 °F 53% 30.00 in 9.0 mi NE 6.9 mph - N/A   Clear
2:53 PM 41.0 °F 34.3 °F 25.0 °F 53% 29.99 in 9.0 mi North 11.5 mph 16.1 mph N/A   Clear
3:53 PM 41.0 °F 33.9 °F 24.1 °F 51% 30.01 in 10.0 mi North 12.7 mph - N/A   Clear
4:53 PM 39.0 °F 31.8 °F 24.1 °F 55% 30.02 in 10.0 mi NNE 11.5 mph - N/A   Clear
5:53 PM 36.0 °F 27.1 °F 24.1 °F 62% 30.04 in 10.0 mi NNE 13.8 mph - N/A   Clear
6:53 PM 33.1 °F 26.1 °F 23.0 °F 66% 30.07 in 10.0 mi NE 8.1 mph - N/A   Clear
7:53 PM 30.9 °F 24.3 °F 23.0 °F 72% 30.09 in 10.0 mi NE 6.9 mph - N/A   Partly Cloudy
8:53 PM 30.0 °F 24.1 °F 21.9 °F 72% 30.11 in 10.0 mi NNE 5.8 mph - N/A   Clear
9:53 PM 28.9 °F 23.9 °F 24.1 °F 82% 30.14 in 9.0 mi North 4.6 mph - N/A   Overcast
10:53 PM 30.0 °F 23.2 °F 23.0 °F 75% 30.13 in 10.0 mi NNE 6.9 mph - N/A   Overcast
11:53 PM 30.0 °F 24.1 °F 23.0 °F 75% 30.12 in 9.0 mi NNE 5.8 mph - N/A   Overcast